Location: New Town
(33.2710°N, 90.7534°W)
Time: 11:50:38
(UTC+00:00)

Explorer 11/Cluster Stage 4 - Pass Details

Date: 15 May 2021
Orbit: 467 x 1257 km, 28.8° (Epoch: 14 June)

Event Time Altitude Azimuth Distance (km) Brightness Sun altitude
Rises 23:33:58 0° 219° (SW) 3,733 10.4 15.5°
Reaches altitude 10° 23:36:57 10° 207° (SSW) 2,901 9.7 14.9°
Maximum altitude 23:42:55 27° 152° (SSE) 2,069 8.5 13.7°
Drops below altitude 10° 23:49:28 10° 99° (E) 3,206 9.1 12.3°
Sets 23:52:56 0° 88° (E) 4,197 9.7 11.6°
